Regional Weather Roundup
Issued by NWS Sioux Falls, SD

Home | Current Version | Previous Version | Text Only | Print | Product List | Glossary On
Versions: 1 2 3 4 5 6 7 8 9 10 11 12 13 14 15 16 17 18 19 20 21 22 23 24 25 26 27 28 29 30 31 32 33 34 35 36 37 38 39 40 41 42 43 44 45 46 47 48 49 50
000
ASUS43 KFSD 211410
RWRFSD

WEATHER ROUNDUP FOR SE SOUTH DAKOTA/SW MINNESOTA/NW IOWA
NATIONAL WEATHER SERVICE SIOUX FALLS SD
800 AM CST WED FEB 21 2018

NOTE: "FAIR" INDICATES FEW OR NO CLOUDS BELOW 12,000 FEET WITH NO
SIGNIFICANT WEATHER AND OR OBSTRUCTIONS TO VISIBILITY.


SDZ038>040-050-052>070-211500-
SOUTHEAST SOUTH DAKOTA

CITY           SKY/WX    TMP DP  RH WIND       PRES   REMARKS
BROOKINGS      CLOUDY    -9 -14  78 MISG        N/A
CHAMBERLAIN    CLEAR    -10 -15  78 SE3       30.49R
HURON          CLEAR     -9 -13  83 SE5       30.52R WCI -20
MADISON        FAIR      -8  -9  92 SW5       30.49R WCI -19
MITCHELL       CLEAR     -4 -10  75 S5        30.55R WCI -15
SIOUX FALLS    CLOUDY    -5  -9  83 CALM      30.53R
WINNER         FAIR      -2 -11  65 SW6       30.45R WCI -14
YANKTON        CLOUDY    -2  -7  79 SW5       30.56R WCI -12
$$

MNZ071-072-080-081-089-090-097-098-211500-
SOUTHWEST MINNESOTA

CITY           SKY/WX    TMP DP  RH WIND       PRES   REMARKS
FAIRMONT       CLOUDY     0  -5  79 SW7       30.58R WCI -13
JACKSON        CLOUDY     1  -6  71 S7        30.53R WCI -11
LUVERNE        CLOUDY    -6  -9  84 NW6       30.54R WCI -18
MARSHALL       CLOUDY    -5 -11  75 SW10      30.53R WCI -23
MONTEVIDEO     CLOUDY     1  -6  71 W6        30.53R WCI -10
PIPESTONE      CLOUDY    -8 -11  84 W5        30.48R FOG     WCI -19
REDWOOD FALLS  CLOUDY    -1  -7  75 W3        30.56R
TRACY          CLOUDY    -1  -7  76 SW7       30.52R WCI -14
WORTHINGTON    CLOUDY     2  -5  72 S3        30.52R
$$

IAZ001>003-012>014-020>022-031-032-NEZ013-014-SDZ071-211500-
NORTHWEST IOWA

CITY           SKY/WX    TMP DP  RH WIND       PRES   REMARKS
CHEROKEE       CLOUDY     2  -1  86 CALM      30.59R
DENISON        CLOUDY     7   3  85 CALM      30.61R
ESTHERVILLE    CLOUDY     0  -4  83 SW6       30.55R WCI -12
LE MARS        CLOUDY     0  -4  85 S5        30.60R WCI -10
ORANGE CITY    CLOUDY    -2  -6  84 CALM      30.56R
SHELDON        CLOUDY    -2  -6  84 S3        30.54R
SIOUX CITY     CLOUDY     1  -1  91 S3        30.63R
SPENCER        MIX PCPN   0  -5  79 S6        30.57R WCI -12
STORM LAKE     CLEAR      3   0  85 CALM      30.57R
$$

ABBREVIATIONS USED IN REMARKS
   TC - TEMPERATURE IN CELSIUS
  WCI - WIND CHILL INDEX
   HX - HEAT INDEX
  VSB - VISIBILITY




USA.gov is the U.S. government's official web portal to all federal, state and local government web resources and services.